sat.trackr.live / text

‹ back to catalog

STARLINK-33823

NORAD 63661 · 2025-083AD

PAYLOAD ACTIVE UNKNOWN

§ Identity

Operator
Country
US
Launch date
2025-04-25
Launch site
AFETR
Launch vehicle
Mass (kg)
RCS (m²)

Purposes: comms

External: N2YO · Heavens-Above · Gunter

§ Orbital elements

Epoch: 2026-05-25T02:43:39.283104Z

Period
94.27 min
Inclination
42.9996°
Eccentricity
0.0000622
Mean motion
15.27578636 rev/d
Perigee alt
482.6 km
Apogee alt
483.5 km
Semi-major
6,861.2 km
B*
5.0553e-4
RAAN
293.7164°
Arg perigee
302.7146°
Mean anomaly
57.3646°
Rev number
6,178

§ Raw data

STARLINK-338231 63661U 25083AD  26145.11364911  .00013674  00000+0  50553-3 0  99952 63661  42.9996 293.7164 0000622 302.7146  57.3646 15.27578636 61781

JSON: /api/v1/satellites/63661 · /tle

For live sub-satellite position, see the globe view (requires WebGL).

§ Visibility from observer

Set your observer location to see the next 7 days of passes ≥ 10°. The values pass through the URL so the page stays shareable.

No JS? Fill the form by hand. The geolocation button needs JavaScript.